Location: Saluda
(35.2377°N, 82.3468°W)
Time: 16:49:52
(UTC+00:00)

Altair - All Passes

Search period start: 26 September 2022 00:00
Search period end: 06 October 2022 00:00
Orbit: 1501 x 1682 km, 47.2° (Epoch: 26 September)

Date Brightness Start Highest point End Pass type
(mag) Time Alt. Az. Time Alt. Az. Time Alt. Az.
26 Sep - 09:17:05 10° SSE 09:23:12 19° ESE 09:29:26 10° E visible
26 Sep - 11:17:01 10° SW 11:26:42 72° SE 11:36:44 10° ENE daylight
26 Sep - 13:22:23 10° W 13:32:03 53° NNW 13:41:57 10° NE daylight
26 Sep - 15:29:24 10° WNW 15:38:53 42° N 15:48:23 10° ENE daylight
26 Sep - 17:35:08 10° NW 17:45:18 68° NNE 17:55:19 10° ESE daylight
26 Sep - 19:40:29 10° WNW 19:49:56 46° SW 19:59:11 10° SSE daylight
27 Sep - 08:52:46 10° SSE 08:58:08 16° ESE 09:03:36 10° E visible
27 Sep - 10:51:56 10° SW 11:01:31 66° SE 11:11:27 10° ENE visible
27 Sep - 12:57:03 10° W 13:06:43 55° NNW 13:16:40 10° NE daylight
27 Sep - 15:04:04 10° WNW 15:13:30 42° N 15:22:59 10° ENE daylight
27 Sep - 17:09:53 10° NW 17:20:01 65° NNE 17:30:01 10° ESE daylight
27 Sep - 19:15:09 10° WNW 19:24:47 50° SW 19:34:13 10° SSE daylight
28 Sep - 08:28:39 10° SSE 08:33:06 14° ESE 08:37:35 10° E visible
28 Sep - 10:26:53 10° SSW 10:36:21 61° SE 10:46:11 10° ENE visible
28 Sep - 12:31:43 10° WSW 12:41:24 57° NNW 12:51:23 10° NE daylight
28 Sep - 14:38:42 10° WNW 14:48:06 42° N 14:57:36 10° ENE daylight
28 Sep - 16:44:38 10° NW 16:54:43 62° NNE 17:04:42 10° ESE daylight
28 Sep - 18:49:50 10° WNW 18:59:38 55° SW 19:09:13 10° SSE daylight
28 Sep - 20:59:47 10° WSW 21:02:50 12° WSW 21:05:53 10° SW daylight
29 Sep - 08:04:55 10° SE 08:08:03 12° ESE 08:11:12 10° E visible
29 Sep - 10:01:52 10° SSW 10:11:12 56° SE 10:20:53 10° ENE visible
29 Sep - 12:06:25 10° WSW 12:16:06 60° NNW 12:26:08 10° NE daylight
29 Sep - 14:13:21 10° WNW 14:22:43 42° N 14:32:13 10° ENE daylight
29 Sep - 16:19:23 10° NW 16:29:24 59° NNE 16:39:21 10° ESE daylight
29 Sep - 18:24:33 10° WNW 18:34:28 60° SW 18:44:11 10° SSE daylight
29 Sep - 20:33:18 10° W 20:37:47 14° WSW 20:42:13 10° SSW daylight
30 Sep - 09:36:53 10° SSW 09:46:03 52° SE 09:55:34 10° ENE visible
30 Sep - 11:41:07 10° WSW 11:50:48 63° NNW 12:00:51 10° NE daylight
30 Sep - 13:47:59 10° WNW 13:57:20 42° N 14:06:49 10° ENE daylight
30 Sep - 15:54:08 10° NW 16:04:05 56° NNE 16:14:00 10° E daylight
30 Sep - 17:59:16 10° WNW 18:09:17 65° SW 18:19:08 10° SE daylight
30 Sep - 20:07:14 10° W 20:12:42 16° WSW 20:18:08 10° SSW daylight
01 Oct - 09:11:56 10° SSW 09:20:55 47° SE 09:30:14 10° ENE visible
01 Oct - 11:15:50 10° WSW 11:25:31 67° NNW 11:35:36 10° NE daylight
01 Oct - 13:22:38 10° WNW 13:31:57 42° N 13:41:28 10° ENE daylight
01 Oct - 15:28:52 10° NW 15:38:45 54° NNE 15:48:38 10° E daylight
01 Oct - 17:33:59 10° WNW 17:44:05 70° SW 17:54:02 10° SE daylight
01 Oct - 19:41:24 10° W 19:47:38 18° WSW 19:53:49 10° SSW daylight
02 Oct - 08:47:01 10° SSW 08:55:48 43° SE 09:04:53 10° ENE visible
02 Oct - 10:50:34 10° WSW 11:00:15 70° NNW 11:10:20 10° NE visible
02 Oct - 12:57:16 10° WNW 13:06:34 42° N 13:16:06 10° ENE daylight
02 Oct - 15:03:36 10° NW 15:13:25 52° NNE 15:23:15 10° E daylight
02 Oct - 17:08:44 10° WNW 17:18:53 75° SW 17:28:55 10° SE daylight
02 Oct - 19:15:41 10° W 19:22:33 21° SW 19:29:22 10° SSW daylight
03 Oct - 08:22:09 10° SSW 08:30:41 39° SE 08:39:32 10° ENE visible
03 Oct - 10:25:19 10° WSW 10:35:00 74° NNW 10:45:04 10° NE visible
03 Oct - 12:31:55 10° WNW 12:41:12 43° N 12:50:44 10° ENE daylight
03 Oct - 14:38:21 10° WNW 14:48:04 50° NNE 14:57:51 10° E daylight
03 Oct - 16:43:30 10° WNW 16:53:40 80° SW 17:03:46 10° SE daylight
03 Oct - 18:50:03 10° WNW 18:57:27 24° SW 19:04:49 10° S daylight
04 Oct - 07:57:18 10° S 08:05:35 35° SE 08:14:08 10° ENE visible
04 Oct - 10:00:06 10° WSW 10:09:45 79° NNW 10:19:49 10° NE visible
04 Oct - 12:06:33 10° W 12:15:50 44° N 12:25:23 10° ENE daylight
04 Oct - 14:13:04 10° WNW 14:22:43 48° NNE 14:32:27 10° E daylight
04 Oct - 16:18:15 10° NW 16:28:27 85° SW 16:38:35 10° SE daylight
04 Oct - 18:24:30 10° WNW 18:32:22 26° SW 18:40:10 10° S daylight
05 Oct - 07:32:32 10° S 07:40:30 32° SE 07:48:43 10° ENE visible
05 Oct - 09:34:54 10° WSW 09:44:31 83° NW 09:54:34 10° NE visible
05 Oct - 11:41:11 10° W 11:50:28 45° NNW 12:00:03 10° ENE daylight
05 Oct - 13:47:48 10° WNW 13:57:21 46° NNE 14:07:03 10° E daylight
05 Oct - 15:53:00 10° NW 16:03:13 90° NE 16:13:23 10° SE daylight
05 Oct - 17:59:00 10° WNW 18:07:15 29° SW 18:15:26 10° S daylight
